STARLINK-2627 (48687 NORAD) Tracking and Keplerian Element Data

This shows tracking and keplerian element data for the satellite.

Feedback or suggestion? Click here.




ElementValue
Catalog48687
NameSTARLINK-2627
Epoch Orbit173
Epoch Day170.58334491
Epoch Year2021
RAAN306.2449
Inclination53.0477
Eccentricity0.0001303
Argument of Perigee47.2747
Mean Anonmoly84.7065
Mean Motion15.73267373
Decay Rate-0.00106413
L11 48687U 21044BB 21170.58334491 -.00106413 00000-0 -76105-3 0 9991
L22 48687 53.0477 306.2449 0001303 47.2747 84.7065 15.73267373 1732

Live tracking and technical data element details for STARLINK-2627 (NORAD 48687). STARLINK-2627 can be tracked NOW for your location showing map with azimuth and elevation plus other details from your city location.

Track the satellite on the map from your city or location and see movement details for azimuth, elevation, latitude, longitude, range, height, and movement on the map or in text.







IsCatalogInMostPopularTable: catalog: 48687, numindb: 5
Update: records affected: 1



GetName: 48687 STARLINK-2627

Hit Count: updated at: Mon, 21 Jun 2021 03:43:59 GMT